Weather History for Loreto, Mexico

Change the Weather History Date:

Tuesday, October 9, 2012

  Actual Average Record
Temperature  
Mean Temperature 82 °F -  
Max Temperature 93 °F 88 °F 95 °F (1998)
Min Temperature 71 °F 77 °F 71 °F (2001)
Cooling Degree Days 17    
Growing Degree Days 32 (Base 50)    
Moisture  
Dew Point 67 °F    
Average Humidity 55    
Maximum Humidity 78    
Minimum Humidity 26    
Precipitation  
Precipitation 0.00 in - - ()
Sea Level Pressure  
Sea Level Pressure 29.87 in    
Wind  
Wind Speed 5 mph ()    
Max Wind Speed 12 mph    
Max Gust Speed -    
Visibility 9.3 miles    
Events      
Averages and records for this station are not official NWS values.
T = Trace of Precipitation, MM = Missing Value Source: Averaged Metar Reports

Daily Weather History Graph

Daily Weather History Graph

Search for Another Location

Airport:

Trip Planner

Search our weather history database for the weather conditions in past years. The results will help you decide how hot, cold, wet, or windy it might be!

Date:

Astronomy

Oct. 09, 2012 Rise Set
Actual Time 7:21 AM MDT 7:02 PM MDT
Civil Twilight 6:58 AM MDT 7:26 PM MDT
Nautical Twilight 6:31 AM MDT 7:52 PM MDT
Astronomical Twilight 6:05 AM MDT 8:19 PM MDT
Moon 1:35 AM MDT (10/9) 3:01 PM MDT (10/9)
Length of Visible Light 12h 27m
Length of Day
11h 41m
Last Quarter, 36% of the Moon is Illuminated
Oct 9
Last Quarter
Oct 15
New
Oct 21
First Quarter
Oct 29
Full
Nov 6
Last Quarter

Hourly Weather History & Observations

Time (MDT) Temp. Heat Index Dew Point Humidity Pressure Visibility Wind Dir Wind Speed Gust Speed Precip Events Conditions
5:50 AM 73 °F - 60 °F 54% 29.86 in 12 mi NW 2.2 mph - -  
7:01 AM 75.2 °F - 68.0 °F 78% 29.87 in 8.0 mi Calm Calm - N/A   Clear
7:47 AM 75.2 °F - 62.6 °F 65% 29.87 in 8.0 mi NW 9.2 mph - N/A   Clear
8:45 AM 75.2 °F - 66.2 °F 73% 29.89 in 8.0 mi NW 9.2 mph - N/A   Clear
8:50 AM 77 °F - 62 °F 49% 29.90 in 12 mi West 2.2 mph - -  
9:45 AM 80.6 °F 82.7 °F 66.2 °F 61% 29.91 in 8.0 mi NW 9.2 mph - N/A   Partly Cloudy
10:45 AM 82.4 °F 85.4 °F 68.0 °F 62% 29.91 in 8.0 mi NW 9.2 mph - N/A   Clear
11:45 AM 89 °F - 64 °F 33% 29.89 in 12 mi NNW 2.2 mph - -  
11:46 AM 86.0 °F 90.4 °F 69.8 °F 58% 29.90 in 8.0 mi NW 9.2 mph - N/A   Partly Cloudy
12:43 PM 86.0 °F 90.4 °F 69.8 °F 58% 29.89 in 8.0 mi North 11.5 mph - N/A   Clear
1:51 PM 86.0 °F 90.4 °F 69.8 °F 58% 29.86 in 8.0 mi NE 11.5 mph - N/A   Clear
2:43 PM 86.0 °F 90.4 °F 69.8 °F 58% 29.84 in 8.0 mi NE 11.5 mph - N/A   Clear
2:45 PM 90 °F - 60 °F 26% 29.84 in 12 mi ENE 4.5 mph - -  
3:43 PM 87.8 °F 93.8 °F 71.6 °F 58% 29.82 in 8.0 mi NE 9.2 mph - N/A   Partly Cloudy
4:44 PM 89.6 °F 96.2 °F 71.6 °F 55% 29.83 in 8.0 mi NE 9.2 mph - N/A   Partly Cloudy
5:44 PM 87.8 °F 92.6 °F 69.8 °F 55% 29.82 in 8.0 mi Calm Calm - N/A   Scattered Clouds
5:45 PM 87 °F - 65 °F 39% 29.84 in 12 mi NE 4.5 mph - -   Scattered Clouds
6:40 PM 86.0 °F 91.8 °F 71.6 °F 62% 29.83 in 8.0 mi Calm Calm - N/A   Scattered Clouds
8:50 PM 82 °F - 64 °F 44% 29.88 in 12 mi SW 2.2 mph - -   Scattered Clouds